| time (UTC) | temp C | wind direction | speed KPH | gust KPH | rain 1hr cm | rain 24hr cm | rain mn cm | humidity % | barometer mb |
| 20260510071600 | 10 | 172 | 0.0 | 0.0 | 0.00 | 0.00 | 0.00 | 81 | 1011.0 |
| 20260510070106 | 10 | 172 | 0.0 | 0.0 | 0.00 | 0.00 | 0.00 | 80 | 1011.0 |
| 20260510064634 | 10 | 172 | 0.0 | 0.0 | 0.00 | 0.00 | 0.00 | 78 | 1010.6 |
| 20260510063052 | 10 | 172 | 0.0 | 0.0 | 0.00 | 0.00 | 0.00 | 78 | 1010.5 |
| 20260510061550 | 11 | 172 | 0.0 | 0.0 | 0.00 | 0.00 | 0.00 | 78 | 1010.5 |
| 20260510060048 | 11 | 172 | 0.0 | 0.0 | 0.00 | 0.00 | 0.00 | 78 | 1010.5 |
| 20260510054547 | 11 | 172 | 0.0 | 0.0 | 0.00 | 0.00 | 0.00 | 77 | 1010.5 |
| 20260510053047 | 11 | 172 | 0.0 | 0.0 | 0.00 | 0.00 | 0.00 | 75 | 1010.5 |
| 20260510051550 | 12 | 172 | 0.0 | 0.0 | 0.00 | 0.00 | 0.00 | 75 | 1010.6 |
| 20260510050040 | 12 | 172 | 0.0 | 0.0 | 0.00 | 0.00 | 0.00 | 74 | 1010.6 |
| 20260510044538 | 12 | 172 | 0.0 | 0.0 | 0.00 | 0.00 | 0.00 | 72 | 1010.6 |
| 20260510043036 | 12 | 172 | 0.0 | 0.0 | 0.00 | 0.00 | 0.00 | 72 | 1010.5 |
| 20260510041534 | 12 | 172 | 0.0 | 0.0 | 0.00 | 0.00 | 0.00 | 71 | 1010.3 |
| 20260510040043 | 12 | 172 | 0.0 | 0.0 | 0.00 | 0.00 | 0.00 | 70 | 1010.3 |
| 20260510034532 | 13 | 172 | 0.0 | 0.0 | 0.00 | 0.00 | 0.00 | 70 | 1010.3 |
| 20260510033030 | 13 | 172 | 0.0 | 0.0 | 0.00 | 0.00 | 0.00 | 69 | 1010.2 |
| 20260510031532 | 13 | 172 | 0.0 | 0.0 | 0.00 | 0.00 | 0.00 | 68 | 1010.2 |
| 20260510030030 | 14 | 172 | 0.0 | 0.0 | 0.00 | 0.00 | 0.00 | 68 | 1010.2 |
| 20260510024531 | 14 | 172 | 0.0 | 0.0 | 0.00 | 0.00 | 0.00 | 67 | 1010.1 |
| 20260510023028 | 15 | 172 | 0.0 | 0.0 | 0.00 | 0.00 | 0.00 | 66 | 1010.0 |
| 20260510021531 | 15 | 172 | 0.0 | 0.0 | 0.00 | 0.00 | 0.00 | 66 | 1010.0 |
| 20260510020031 | 15 | 172 | 0.0 | 0.0 | 0.00 | 0.00 | 0.00 | 67 | 1009.7 |
| 20260510014528 | 15 | 172 | 0.0 | 0.0 | 0.00 | 0.00 | 0.00 | 66 | 1009.6 |
| 20260510013027 | 15 | 172 | 0.0 | 0.0 | 0.00 | 0.00 | 0.00 | 66 | 1009.3 |
| 20260510011526 | 15 | 172 | 0.0 | 0.0 | 0.00 | 0.00 | 0.00 | 65 | 1009.0 |
| 20260510010025 | 16 | 172 | 0.0 | 0.0 | 0.00 | 0.00 | 0.00 | 63 | 1008.9 |
| 20260510004524 | 17 | 172 | 0.0 | 0.0 | 0.00 | 0.00 | 0.00 | 60 | 1008.8 |
| 20260510003023 | 17 | 172 | 0.0 | 0.0 | 0.00 | 0.00 | 0.00 | 59 | 1008.6 |
| 20260510001521 | 18 | 172 | 0.0 | 0.0 | 0.00 | 0.00 | 0.00 | 57 | 1008.5 |
| 20260510000021 | 20 | 172 | 0.0 | 0.0 | 0.00 | 0.00 | 0.00 | 51 | 1008.5 |
| 20260509234520 | 20 | 172 | 0.0 | 0.0 | 0.00 | 0.00 | 0.00 | 49 | 1008.4 |
| 20260509233021 | 21 | 172 | 0.0 | 0.0 | 0.00 | 0.00 | 0.00 | 45 | 1008.2 |
| 20260509231518 | 22 | 172 | 0.0 | 0.0 | 0.00 | 0.00 | 0.00 | 44 | 1008.2 |
| 20260509230018 | 22 | 170 | 0.0 | 0.0 | 0.00 | 0.00 | 0.00 | 42 | 1008.2 |
| 20260509224516 | 22 | 173 | 0.0 | 3.2 | 0.00 | 0.00 | 0.00 | 40 | 1008.1 |
| 20260509223015 | 23 | 197 | 0.0 | 4.8 | 0.00 | 0.00 | 0.00 | 36 | 1008.3 |
| 20260509221516 | 23 | 167 | 0.0 | 6.4 | 0.00 | 0.00 | 0.00 | 34 | 1008.2 |
| 20260509220014 | 23 | 187 | 0.0 | 4.8 | 0.00 | 0.00 | 0.00 | 33 | 1008.3 |
| 20260509214513 | 25 | 162 | 3.2 | 4.8 | 0.00 | 0.00 | 0.00 | 30 | 1008.2 |
| 20260509213013 | 24 | 135 | 1.6 | 4.8 | 0.00 | 0.00 | 0.00 | 34 | 1008.1 |
| 20260509211509 | 25 | 181 | 0.0 | 4.8 | 0.00 | 0.00 | 0.00 | 33 | 1008.0 |
| 20260509210008 | 24 | 194 | 0.0 | 6.4 | 0.00 | 0.00 | 0.00 | 34 | 1008.0 |
| 20260509204511 | 24 | 251 | 0.0 | 4.8 | 0.00 | 0.00 | 0.00 | 35 | 1008.1 |
| 20260509203002 | 23 | 181 | 1.6 | 6.4 | 0.00 | 0.00 | 0.00 | 39 | 1008.0 |
| 20260509201501 | 23 | 136 | 3.2 | 8.0 | 0.00 | 0.00 | 0.00 | 39 | 1008.0 |
| 20260509200111 | 23 | 160 | 1.6 | 4.8 | 0.00 | 0.00 | 0.00 | 39 | 1008.3 |
| 20260509194557 | 23 | 184 | 3.2 | 11.3 | 0.00 | 0.00 | 0.00 | 38 | 1008.6 |
| 20260509193052 | 22 | 134 | 0.0 | 8.0 | 0.00 | 0.00 | 0.00 | 42 | 1008.8 |
| 20260509191549 | 21 | 166 | 0.0 | 6.4 | 0.00 | 0.00 | 0.00 | 43 | 1009.2 |
| 20260509190049 | 21 | 305 | 1.6 | 8.0 | 0.00 | 0.00 | 0.00 | 42 | 1009.4 |
| 20260509184548 | 21 | 153 | 0.0 | 14.5 | 0.00 | 0.00 | 0.00 | 43 | 1009.2 |
| 20260509183100 | 21 | 160 | 1.6 | 8.0 | 0.00 | 0.00 | 0.00 | 43 | 1009.3 |
| 20260509181542 | 20 | 147 | 0.0 | 8.0 | 0.00 | 0.00 | 0.00 | 43 | 1009.7 |
| 20260509180039 | 20 | 307 | 0.0 | 4.8 | 0.00 | 0.00 | 0.00 | 43 | 1010.1 |
| 20260509174547 | 20 | 102 | 0.0 | 6.4 | 0.00 | 0.00 | 0.00 | 43 | 1010.4 |
| 20260509173042 | 21 | 150 | 0.0 | 1.6 | 0.00 | 0.00 | 0.00 | 44 | 1010.4 |
| 20260509171542 | 21 | 174 | 1.6 | 6.4 | 0.00 | 0.00 | 0.00 | 42 | 1010.3 |
| 20260509170035 | 21 | 144 | 0.0 | 4.8 | 0.00 | 0.00 | 0.00 | 42 | 1010.4 |
| 20260509164534 | 21 | 178 | 1.6 | 6.4 | 0.00 | 0.00 | 0.00 | 42 | 1010.6 |
| 20260509163043 | 20 | 164 | 0.0 | 9.7 | 0.00 | 0.00 | 0.00 | 44 | 1010.7 |
| 20260509161541 | 20 | 158 | 0.0 | 4.8 | 0.00 | 0.00 | 0.00 | 45 | 1010.6 |
| 20260509160032 | 21 | 184 | 3.2 | 6.4 | 0.00 | 0.00 | 0.00 | 42 | 1010.7 |
| 20260509154526 | 20 | 153 | 1.6 | 8.0 | 0.00 | 0.00 | 0.00 | 44 | 1010.8 |
| 20260509153041 | 20 | 155 | 1.6 | 9.7 | 0.00 | 0.00 | 0.00 | 44 | 1011.0 |
| 20260509151523 | 20 | 310 | 0.0 | 6.4 | 0.00 | 0.00 | 0.00 | 44 | 1011.0 |
| 20260509150032 | 19 | 121 | 1.6 | 8.0 | 0.00 | 0.00 | 0.00 | 44 | 1011.1 |
| 20260509144520 | 18 | 172 | 1.6 | 6.4 | 0.00 | 0.00 | 0.00 | 45 | 1011.3 |
| 20260509143015 | 17 | 176 | 1.6 | 11.3 | 0.00 | 0.00 | 0.00 | 45 | 1011.5 |
| 20260509141513 | 17 | 193 | 0.0 | 8.0 | 0.00 | 0.00 | 0.00 | 48 | 1011.7 |
| 20260509140008 | 16 | 127 | 1.6 | 8.0 | 0.00 | 0.00 | 0.00 | 50 | 1011.8 |
| 20260509134506 | 16 | 149 | 0.0 | 3.2 | 0.00 | 0.00 | 0.00 | 50 | 1011.7 |
| 20260509133005 | 15 | 165 | 0.0 | 1.6 | 0.00 | 0.00 | 0.00 | 51 | 1011.9 |
| 20260509131502 | 15 | 166 | 0.0 | 4.8 | 0.00 | 0.00 | 0.00 | 50 | 1011.9 |
| 20260509130100 | 14 | 148 | 0.0 | 3.2 | 0.00 | 0.00 | 0.00 | 51 | 1011.8 |
| 20260509124559 | 14 | 193 | 0.0 | 4.8 | 0.00 | 0.00 | 0.00 | 51 | 1011.8 |
| 20260509123119 | 14 | 135 | 1.6 | 8.0 | 0.00 | 0.00 | 0.00 | 50 | 1011.8 |
| 20260509121600 | 14 | 194 | 1.6 | 4.8 | 0.00 | 0.00 | 0.00 | 49 | 1011.8 |
| 20260509120056 | 14 | 158 | 0.0 | 4.8 | 0.00 | 0.00 | 0.00 | 48 | 1011.9 |
| 20260509114554 | 14 | 171 | 0.0 | 4.8 | 0.00 | 0.00 | 0.00 | 47 | 1011.7 |
| 20260509113054 | 14 | 178 | 0.0 | 4.8 | 0.00 | 0.00 | 0.00 | 46 | 1011.8 |
| 20260509111552 | 14 | 169 | 0.0 | 4.8 | 0.00 | 0.00 | 0.00 | 45 | 1011.4 |
| 20260509110051 | 15 | 213 | 0.0 | 0.0 | 0.00 | 0.00 | 0.00 | 44 | 1011.5 |
| 20260509104550 | -17 | 0.0 | 0.0 | 0.00 | 0.00 | 0.00 | 1011.3 | ||
| 20260509103058 | -17 | 0.0 | 0.0 | 0.00 | 0.00 | 0.00 | 1011.4 | ||
| 20260509101549 | -17 | 0.0 | 0.0 | 0.00 | 0.00 | 0.00 | 1011.3 | ||
| 20260509100050 | -17 | 148 | 0.0 | 0.0 | 0.00 | 0.00 | 0.00 | 1011.2 | |
| 20260509094543 | 13 | 167 | 0.0 | 0.0 | 0.00 | 0.00 | 0.00 | 45 | 1011.1 |
| 20260509093043 | 13 | 150 | 0.0 | 0.0 | 0.00 | 0.00 | 0.00 | 45 | 1011.2 |
| 20260509091540 | 13 | 176 | 0.0 | 0.0 | 0.00 | 0.00 | 0.00 | 45 | 1011.5 |
| 20260509090047 | 13 | 170 | 0.0 | 0.0 | 0.00 | 0.00 | 0.00 | 45 | 1011.5 |
| 20260509084536 | 13 | 224 | 0.0 | 0.0 | 0.00 | 0.00 | 0.00 | 45 | 1011.6 |
| 20260509083035 | 13 | 134 | 0.0 | 0.0 | 0.00 | 0.00 | 0.00 | 47 | 1011.7 |
| 20260509081534 | 13 | 176 | 0.0 | 0.0 | 0.00 | 0.00 | 0.00 | 47 | 1011.8 |
| 20260509080032 | 13 | 159 | 0.0 | 3.2 | 0.00 | 0.00 | 0.00 | 47 | 1012.0 |
| 20260509074534 | 13 | 179 | 0.0 | 3.2 | 0.00 | 0.00 | 0.00 | 47 | 1012.2 |
| 20260509073031 | 13 | 146 | 0.0 | 6.4 | 0.00 | 0.00 | 0.00 | 46 | 1012.1 |